This is the latest recevied weather packets stored in our database for station/object KC4GS-13. If no packets are shown the sender has not sent any weather packets the latest 10 day(s).
| Time | Temp. | Humidity | Pressure | Rain* | Wind** | Luminosity | Snow |
|---|---|---|---|---|---|---|---|
| 1787412336 | 28.33° C | 79% | 1017.5 hPa | 0 mm | - | 530 W/m² | - |
| 1787412032 | 27.78° C | 80% | 1017.5 hPa | 0 mm | - | 188 W/m² | - |
| 1787411730 | 28.33° C | 78% | 1017.8 hPa | 0 mm | - | 331 W/m² | - |
| 1787411430 | 28.33° C | 79% | 1017.6 hPa | 0 mm | - | 285 W/m² | - |
| 1787411126 | 27.78° C | 81% | 1017.7 hPa | 0 mm | - | 782 W/m² | - |
| 1787410822 | 27.22° C | 82% | 1017.6 hPa | 0 mm | - | 206 W/m² | - |
| 1787410522 | 27.22° C | 82% | 1017.7 hPa | 0 mm | - | 209 W/m² | - |
| 1787410217 | 27.22° C | 82% | 1017.8 hPa | 0 mm | - | 206 W/m² | - |
| 1787409914 | 26.67° C | 83% | 1017.8 hPa | 0 mm | - | 220 W/m² | - |
| 1787409609 | 26.67° C | 83% | 1017.8 hPa | 0 mm | - | 177 W/m² | - |
| 1787409304 | 26.67° C | 84% | 1017.8 hPa | 0 mm | - | 193 W/m² | - |
| 1787409001 | 26.11° C | 85% | 1017.9 hPa | 0 mm | - | 255 W/m² | - |
| 1787408696 | 25.56° C | 85% | 1017.7 hPa | 0 mm | - | 158 W/m² | - |
| 1787408395 | 25.56° C | 85% | 1017.8 hPa | 0 mm | - | 118 W/m² | - |
| 1787408092 | 25.56° C | 85% | 1017.6 hPa | 0 mm | - | 140 W/m² | - |
| 1787407787 | 25.56° C | 86% | 1017.9 hPa | 0 mm | - | 151 W/m² | - |
| 1787407482 | 25.56° C | 86% | 1017.7 hPa | 0 mm | - | 148 W/m² | - |
| 1787407182 | 25.56° C | 87% | 1017.9 hPa | 0 mm | - | 134 W/m² | - |
| 1787406878 | 25.56° C | 87% | 1017.9 hPa | 0 mm | - | 192 W/m² | - |
| 1787406573 | 25° C | 87% | 1017.9 hPa | 0 mm | - | 180 W/m² | - |
| 1787406270 | 25° C | 88% | 1018 hPa | 0 mm | - | 302 W/m² | - |
| 1787405965 | 25° C | 89% | 1017.9 hPa | 0 mm | - | 138 W/m² | - |
| 1787405662 | 25° C | 89% | 1017.9 hPa | 0 mm | - | 99 W/m² | - |
| 1787405356 | 24.44° C | 91% | 1017.8 hPa | 0 mm | - | 161 W/m² | - |
| 1787405052 | 24.44° C | 91% | 1017.4 hPa | 0 mm | - | 101 W/m² | - |
* Rain latest hour (hover to see other rain measurements)
** Current wind speed in m/s (hover to see current wind gust speed)